Wetbulb
56.61 56.54 56.55 56.52 56.42 56.39 56.36 56.31 56.10 56.15 56.61 56.53 56.27 56.11 55.79 55.91 56.11 56.12 56.17 56.68 56.56 56.45 57.10 55.77 55.74 55.25 52.16 45.01 45.30 58.42 62.57 60.28 57.28 55.90 51.04 48.86 44.58 42.65 38.61 39.72 41.12 38.40 40.02 42.57 43.26 42.80 41.96
56.28 56.18 56.12 56.07 56.00 56.04 56.09 55.95 55.74 55.76 55.97 56.06 55.82 55.47 55.28 55.50 55.66 55.62 55.56 56.08 56.14 57.00 56.65 55.95 55.18 54.73 48.66 39.87 52.04 56.53 58.18 56.37 54.00 51.54 49.03 48.27 45.47 45.97 41.74 40.14 38.22 39.59 40.44 40.66 41.97 42.10 41.94
55.81 55.80 55.67 55.69 55.71 55.63 55.62 55.55 55.35 55.38 55.59 55.53 55.34 54.88 54.75 55.03 55.15 54.98 55.40 55.70 55.64 57.13 56.72 56.91 56.19 53.04 46.34 44.36 53.25 55.55 54.46 53.46 52.99 51.41 47.85 49.59 48.79 44.27 42.94 39.82 42.60 41.50 36.60 38.04 39.53 39.87 39.82
55.48 55.33 55.24 55.34 55.30 55.14 55.10 55.05 54.95 55.09 55.20 55.08 54.73 54.42 54.41 54.68 54.45 54.72 55.38 55.28 55.23 56.54 57.20 56.90 56.92 50.62 42.65 52.96 52.14 51.23 52.83 52.17 53.36 52.72 50.92 50.72 49.80 45.59 42.74 43.19 40.69 36.81 34.60 29.29 37.19 39.80 40.90
54.98 54.87 54.84 54.97 55.00 54.98 54.92 54.75 54.66 54.60 54.65 54.50 54.07 53.99 54.09 54.31 54.11 54.89 55.51 55.49 55.24 55.91 57.21 57.32 50.44 45.96 40.45 53.84 44.91 50.39 49.24 49.89 51.47 51.16 50.98 52.66 48.21 42.16 41.68 35.40 31.29 32.25 27.87 29.09 33.57 37.84 33.75
54.53 54.44 54.40 54.42 54.56 54.60 54.61 54.45 54.22 54.18 54.21 53.88 53.50 53.41 53.55 53.77 54.14 55.03 55.13 55.44 55.16 52.90 53.18 54.23 51.08 40.55 43.69 39.78 44.55 47.37 45.41 48.24 48.99 48.33 46.39 45.73 41.92 37.35 35.98 32.92 24.74 24.66 26.48 28.45 28.72 30.51 29.29
54.13 53.99 54.01 54.03 54.16 54.18 54.09 53.91 53.77 53.87 53.73 53.30 52.89 52.94 53.25 53.23 53.84 54.76 47.87 43.69 40.06 39.18 43.86 40.82 41.66 41.84 44.08 43.97 45.68 42.62 44.87 43.65 44.86 42.33 33.99 39.52 33.60 22.30 24.71 25.98 26.78 25.40 22.06 19.89 23.23 28.46 24.97
53.60 53.58 53.61 53.67 53.78 53.75 53.48 53.40 53.36 53.33 53.27 52.83 52.46 52.62 53.08 52.92 53.23 51.09 43.82 40.42 40.62 40.85 38.18 44.98 44.05 42.37 43.40 43.86 38.17 39.31 43.00 36.31 37.16 32.31 31.37 28.34 20.85 27.78 27.85 26.02 24.60 21.96 17.98 16.83 23.07 25.84 25.06
53.06 53.09 53.23 53.25 53.26 53.11 53.05 52.92 52.82 52.89 52.86 52.46 52.13 52.38 52.83 53.31 52.96 43.22 40.22 39.62 44.40 44.69 38.22 41.51 41.93 39.41 39.62 40.07 34.40 33.54 37.69 34.95 31.91 27.81 26.19 22.36 24.32 27.94 25.18 21.36 20.39 19.85 17.08 17.29 17.21 22.37 24.70
52.47 52.75 52.82 52.86 52.72 52.56 52.38 52.16 52.22 52.46 52.23 51.94 51.73 52.06 52.86 52.37 43.07 39.77 37.72 42.07 44.97 45.38 30.43 34.71 37.96 37.95 39.21 39.99 30.63 36.01 36.23 33.73 29.05 24.32 26.08 23.30 27.70 25.01 21.67 19.94 20.22 16.65 22.06 20.91 19.83 16.87 12.02
51.92 52.26 52.27 52.31 52.04 52.01 51.74 51.70 51.91 51.98 52.28 52.09 51.24 51.62 52.21 48.00 38.29 36.45 38.48 41.50 45.74 43.29 19.25 35.92 36.56 41.60 38.56 32.17 32.20 30.59 35.54 32.02 23.35 22.95 23.27 21.14 21.49 21.35 18.94 19.56 21.92 18.12 22.76 20.46 19.65 16.07 13.47
51.49 51.78 51.87 51.62 51.59 51.33 51.10 51.26 51.42 51.53 52.13 51.82 50.87 51.00 51.39 40.90 37.94 38.01 39.68 43.69 44.48 30.12 16.82 27.83 33.70 30.36 29.23 30.63 30.12 30.78 28.20 31.35 29.49 25.19 23.78 21.92 26.48 22.90 21.24 22.80 23.10 24.27 20.17 19.44 18.04 14.83 2.12
51.08 51.37 51.35 51.21 51.18 50.78 50.69 50.74 50.89 51.21 51.42 51.44 50.47 50.43 48.42 41.19 35.38 38.42 41.53 42.75 28.28 22.68 30.32 25.25 24.67 28.01 25.97 23.88 25.06 25.80 22.38 19.18 16.88 13.31 12.64 19.29 20.30 23.01 23.49 19.22 22.43 20.89 15.21 5.60 0.82 -1.84 4.37
50.65 50.82 50.72 50.83 50.54 50.26 50.24 50.36 50.46 50.57 50.61 51.11 50.81 50.21 47.24 41.32 38.76 38.76 42.08 31.73 22.81 24.57 22.48 28.20 26.47 25.59 21.42 22.07 22.05 21.70 20.91 15.90 19.25 15.94 12.65 10.13 7.33 18.48 22.98 19.76 17.21 17.67 15.58 5.57 -2.76 -1.72 0.57
50.17 50.31 50.20 50.29 50.03 49.93 49.80 49.84 49.94 50.62 51.02 50.74 48.28 43.89 38.11 38.45 39.61 40.00 32.72 21.34 19.63 21.69 24.83 23.51 24.08 19.93 19.29 21.41 19.50 18.62 15.03 14.92 17.49 17.35 10.78 8.97 10.59 21.07 23.12 22.16 21.47 16.81 11.96 18.07 11.30 8.81 4.87
49.73 49.71 49.93 49.69 49.74 49.37 49.37 49.33 49.39 50.39 50.96 50.00 37.63 39.41 35.62 39.20 38.91 35.40 27.80 22.97 22.42 26.74 26.14 24.79 17.92 19.75 13.87 15.91 15.41 14.53 14.07 18.01 19.31 19.90 18.00 13.85 7.01 18.81 21.40 22.24 21.39 18.06 19.44 8.11 10.60 -3.68 -0.96
49.18 49.27 49.51 49.20 49.07 48.75 48.47 48.60 48.89 49.61 51.11 48.48 36.62 34.06 37.40 37.99 36.14 29.94 20.57 21.40 24.98 28.21 27.67 22.91 19.49 17.72 14.87 13.88 13.88 12.08 13.87 18.77 20.17 20.13 19.43 15.96 12.73 12.96 17.67 14.48 11.05 13.10 10.64 12.71 12.58 11.99 2.52
48.41 48.77 48.71 48.68 48.24 47.88 47.71 47.93 48.36 49.38 50.10 41.39 33.02 28.67 38.29 35.94 26.38 22.48 20.37 24.53 29.69 25.25 26.30 24.60 22.69 20.51 15.50 15.86 13.91 13.68 14.47 16.48 21.95 19.90 15.50 17.46 13.73 6.53 10.41 17.83 18.03 13.98 9.22 10.12 6.00 5.21 8.93
47.66 48.33 48.11 48.29 47.75 47.27 47.18 47.35 47.82 49.06 48.42 34.60 29.69 28.49 35.49 33.30 21.51 20.26 23.58 24.73 25.01 24.19 23.21 22.70 20.97 21.73 18.99 15.38 12.66 15.69 16.42 23.44 23.23 21.21 16.53 16.80 9.02 2.58 7.20 11.74 12.89 9.04 13.33 13.02 13.29 13.97 5.15
47.20 47.65 47.65 47.71 47.02 46.77 46.63 46.76 47.01 48.29 49.79 35.17 28.23 25.21 26.90 26.58 23.02 21.53 20.92 21.77 21.39 25.60 23.45 23.67 21.28 21.02 17.60 15.19 17.40 14.44 15.75 21.81 23.30 21.86 27.15 21.63 13.24 7.60 2.32 7.43 13.91 9.19 10.36 11.54 8.72 1.07 -1.66
47.16 47.02 47.27 46.98 46.62 46.45 46.24 46.21 46.14 47.04 45.90 34.25 26.31 23.00 24.19 19.44 21.06 20.28 20.98 21.46 19.50 18.83 22.62 22.72 19.71 18.90 16.48 12.52 14.07 13.33 16.39 17.92 21.26 24.16 19.40 16.27 8.66 9.34 12.08 11.07 12.86 11.17 9.57 9.30 6.81 5.80 0.65
47.15 46.42 46.73 46.37 46.29 46.10 45.64 45.72 45.32 45.82 43.15 29.58 25.25 24.25 23.18 21.26 22.66 19.54 20.75 18.10 19.03 20.17 20.28 18.69 17.64 18.91 16.76 14.15 14.34 11.64 15.60 14.62 14.45 17.87 15.86 15.99 9.48 11.72 8.98 14.21 12.84 8.43 10.79 10.99 9.74 8.54 8.67
47.10 46.13 46.24 46.10 45.88 45.70 45.09 45.16 44.58 44.73 39.42 28.98 27.92 27.58 25.21 22.15 18.92 17.53 16.53 18.85 19.99 21.44 22.04 22.68 19.13 16.84 16.54 19.23 20.08 20.12 19.97 19.57 17.96 13.76 12.65 12.48 9.34 7.05 4.19 12.33 10.18 5.36 7.47 10.12 9.89 9.98 7.94
46.89 45.98 46.08 45.53 45.47 45.22 44.63 44.63 44.20 44.01 38.11 30.74 29.08 25.72 22.72 18.77 19.33 20.71 21.53 21.94 20.42 20.38 18.59 20.63 19.29 16.52 21.24 23.25 21.99 19.62 17.51 19.28 18.04 17.27 17.23 11.73 7.31 8.74 4.12 7.41 -6.60 6.37 14.13 14.07 10.76 10.90 9.86
46.83 45.86 45.85 45.00 45.10 44.95 44.52 44.11 43.73 42.89 41.98 32.25 31.06 26.87 22.80 17.26 22.17 21.20 21.20 20.13 19.17 19.97 18.43 20.31 20.78 21.52 22.22 18.34 15.94 13.12 12.21 14.01 14.13 15.30 13.65 14.59 5.55 5.36 2.66 0.05 5.47 9.03 9.95 8.77 7.50 6.76 10.37
46.83 45.50 45.35 44.69 44.33 44.26 44.33 43.46 43.61 42.27 41.29 33.03 31.74 30.86 26.35 22.56 19.87 22.62 19.22 18.54 14.72 12.49 15.59 19.50 23.10 23.28 21.40 18.49 16.54 7.37 3.05 8.53 7.30 10.66 16.07 17.09 11.67 2.89 3.62 -2.86 -3.04 3.61 10.90 14.53 12.34 1.09 10.95
46.92 45.67 45.45 44.56 43.95 43.70 43.93 43.43 42.81 42.27 41.25 34.33 32.25 33.10 27.63 21.22 23.57 22.19 18.89 17.58 19.96 14.92 11.60 16.43 18.77 18.58 19.77 14.70 12.39 6.72 6.29 10.21 3.85 4.57 6.29 7.62 6.14 1.91 0.84 -4.73 -0.31 9.80 12.58 13.54 -0.03 0.64 11.44
46.88 45.83 45.48 44.47 43.87 43.47 43.87 42.70 41.94 42.40 40.86 34.77 31.89 34.20 28.04 22.02 23.73 26.18 26.78 21.10 20.76 18.19 11.02 17.67 14.54 16.64 13.80 9.86 7.78 5.74 3.96 5.54 2.63 5.25 5.24 0.31 -2.77 -0.33 2.16 -0.58 -4.80 13.18 11.21 2.11 6.69 11.82 12.59
47.06 45.73 45.36 44.31 43.84 43.33 43.42 41.93 42.04 41.95 41.12 36.15 29.05 33.97 32.69 25.82 24.75 27.89 26.19 26.42 26.74 25.00 20.94 18.10 15.21 14.19 14.11 8.07 3.58 4.08 7.14 2.80 1.74 -0.42 10.42 -0.22 1.67 -3.15 0.03 4.71 12.18 14.96 13.18 15.43 14.61 13.38 13.68
MSLP
1024.54 1024.35 1024.03 1023.73 1023.43 1023.08 1022.69 1022.31 1021.95 1021.51 1020.98 1020.44 1019.94 1019.49 1019.07 1018.61 1018.13 1017.66 1017.24 1016.81 1016.42 1016.09 1015.88 1015.65 1015.44 1015.37 1015.48 1015.54 1015.93 1015.14 1014.76 1014.55 1014.35 1014.36 1014.49 1014.66 1014.85 1015.02 1015.34 1015.27 1015.31 1015.06 1014.76 1014.31 1013.85 1013.36 1013.04
1024.76 1024.54 1024.23 1023.96 1023.69 1023.32 1022.91 1022.49 1022.06 1021.60 1021.06 1020.53 1020.01 1019.54 1019.06 1018.57 1018.12 1017.69 1017.26 1016.83 1016.42 1016.15 1016.01 1015.78 1015.62 1015.55 1015.30 1015.85 1015.63 1015.30 1015.03 1014.83 1014.71 1014.69 1014.83 1014.94 1015.13 1015.13 1015.40 1015.50 1015.60 1014.99 1014.79 1014.56 1014.01 1013.32 1013.03
1025.00 1024.72 1024.46 1024.18 1023.89 1023.53 1023.09 1022.63 1022.14 1021.60 1021.10 1020.56 1020.04 1019.54 1019.03 1018.49 1017.95 1017.48 1017.05 1016.65 1016.36 1016.16 1015.99 1015.75 1015.51 1015.42 1015.47 1016.18 1015.72 1015.40 1015.11 1014.94 1014.80 1014.75 1014.89 1014.94 1015.03 1015.25 1015.58 1015.63 1015.27 1015.17 1014.95 1014.50 1013.63 1013.04 1012.95
1025.21 1024.96 1024.68 1024.35 1024.00 1023.55 1023.08 1022.65 1022.18 1021.66 1021.09 1020.55 1020.01 1019.54 1019.03 1018.40 1017.74 1017.22 1016.83 1016.44 1016.21 1016.07 1015.90 1015.66 1015.50 1015.50 1015.88 1015.65 1015.63 1015.46 1015.13 1014.89 1014.75 1014.65 1014.70 1014.75 1014.93 1015.31 1015.68 1015.62 1015.60 1015.73 1015.57 1015.30 1014.08 1013.61 1013.08
1025.44 1025.13 1024.85 1024.56 1024.20 1023.74 1023.26 1022.78 1022.23 1021.65 1021.10 1020.56 1020.03 1019.50 1018.99 1018.31 1017.53 1016.80 1016.38 1015.95 1015.91 1016.01 1016.00 1015.79 1015.71 1015.48 1016.11 1015.50 1015.76 1015.88 1015.72 1015.48 1015.09 1014.82 1014.70 1014.84 1015.18 1015.97 1016.32 1016.93 1017.22 1016.85 1016.66 1016.48 1015.90 1015.33 1015.64
1025.62 1025.31 1025.02 1024.76 1024.39 1023.91 1023.39 1022.85 1022.31 1021.71 1021.09 1020.55 1020.04 1019.50 1018.90 1018.28 1017.57 1016.70 1016.08 1015.72 1015.74 1015.78 1015.92 1015.90 1015.80 1016.09 1016.49 1016.73 1016.64 1016.48 1015.82 1015.54 1015.47 1015.46 1015.48 1015.78 1016.50 1017.31 1018.13 1018.83 1019.52 1019.18 1018.55 1018.16 1017.84 1017.85 1017.42
1025.77 1025.49 1025.24 1024.89 1024.44 1023.94 1023.43 1022.90 1022.33 1021.72 1021.12 1020.59 1019.99 1019.39 1018.85 1018.32 1017.68 1016.72 1016.28 1016.19 1016.64 1016.66 1016.82 1017.30 1017.25 1017.09 1017.22 1017.33 1017.18 1017.28 1016.66 1016.41 1016.27 1016.79 1017.50 1017.44 1018.76 1020.52 1021.27 1021.50 1021.37 1020.80 1020.45 1020.22 1020.06 1019.90 1019.12
1025.97 1025.69 1025.36 1025.00 1024.56 1024.02 1023.51 1022.92 1022.34 1021.78 1021.17 1020.59 1019.96 1019.24 1018.60 1018.21 1017.90 1017.15 1017.03 1018.18 1019.03 1019.36 1018.55 1017.88 1017.74 1017.59 1017.47 1017.49 1018.01 1018.60 1017.83 1017.93 1018.33 1018.98 1019.11 1019.64 1021.35 1021.96 1022.40 1022.73 1022.65 1022.43 1022.24 1021.92 1020.73 1020.84 1020.62
1026.13 1025.83 1025.43 1024.95 1024.54 1024.07 1023.52 1022.92 1022.32 1021.74 1021.18 1020.55 1019.91 1019.19 1018.54 1017.94 1017.72 1018.06 1018.93 1019.73 1019.61 1019.41 1019.06 1018.59 1018.26 1018.25 1018.41 1018.51 1020.18 1020.46 1019.77 1019.59 1020.12 1020.65 1021.14 1021.67 1023.44 1023.22 1023.29 1023.47 1023.51 1023.61 1023.68 1023.24 1022.75 1021.66 1021.08
1026.24 1026.00 1025.63 1025.16 1024.67 1024.15 1023.50 1022.86 1022.33 1021.74 1021.21 1020.62 1019.98 1019.26 1018.56 1017.76 1018.03 1018.91 1019.54 1019.71 1019.47 1019.39 1019.64 1019.60 1018.87 1019.07 1019.07 1019.32 1021.74 1022.09 1021.51 1021.63 1021.98 1022.67 1022.49 1023.25 1024.09 1024.00 1024.16 1024.48 1024.74 1024.35 1024.52 1024.24 1023.52 1023.01 1022.09
1026.35 1026.00 1025.60 1025.19 1024.66 1024.20 1023.62 1023.00 1022.41 1021.81 1021.28 1020.71 1020.01 1019.40 1018.95 1018.23 1018.95 1019.49 1020.10 1019.68 1019.24 1019.49 1020.32 1020.58 1019.95 1019.90 1020.62 1021.51 1022.65 1023.83 1023.36 1023.09 1024.24 1024.63 1024.46 1025.14 1025.09 1025.18 1025.42 1025.92 1025.48 1025.20 1024.72 1024.23 1023.69 1023.38 1023.31
1026.44 1026.02 1025.66 1025.18 1024.70 1024.15 1023.65 1023.02 1022.40 1021.85 1021.32 1020.78 1020.16 1019.61 1019.13 1019.22 1019.53 1019.75 1019.71 1019.55 1019.68 1020.10 1021.40 1021.54 1021.35 1021.96 1022.30 1023.10 1023.84 1024.94 1025.48 1024.41 1025.26 1025.48 1025.91 1026.40 1026.18 1026.32 1026.62 1026.54 1026.00 1025.35 1024.74 1023.76 1023.63 1023.93 1024.36
1026.53 1026.14 1025.69 1025.30 1024.90 1024.34 1023.72 1023.02 1022.36 1021.79 1021.12 1020.50 1020.08 1019.65 1019.33 1019.38 1019.85 1019.76 1019.72 1019.92 1020.83 1021.45 1022.93 1023.54 1023.31 1023.54 1024.13 1025.08 1025.52 1026.22 1027.13 1027.01 1027.90 1027.62 1028.06 1027.69 1027.30 1027.07 1026.76 1026.61 1026.06 1025.91 1025.85 1025.47 1025.66 1025.65 1025.72
1026.43 1026.13 1025.78 1025.36 1024.95 1024.34 1023.70 1023.06 1022.38 1021.75 1021.09 1020.33 1019.94 1019.63 1019.64 1019.56 1019.68 1019.73 1019.94 1020.43 1022.16 1024.60 1024.93 1025.03 1025.02 1025.18 1026.01 1026.76 1027.01 1027.87 1028.35 1029.20 1029.44 1029.48 1029.44 1029.24 1028.36 1028.23 1027.73 1027.61 1027.30 1026.77 1027.11 1027.63 1027.69 1027.30 1026.93
1026.50 1026.16 1025.83 1025.44 1025.00 1024.42 1023.85 1023.16 1022.48 1021.65 1020.99 1020.38 1019.76 1019.99 1020.02 1019.83 1019.60 1019.70 1020.35 1023.02 1025.54 1026.10 1026.47 1026.31 1026.02 1026.54 1027.62 1028.05 1028.11 1028.43 1029.49 1030.30 1030.68 1030.65 1030.65 1030.47 1029.90 1028.85 1028.34 1027.95 1027.78 1027.58 1027.75 1027.98 1028.14 1027.85 1028.23
1026.56 1026.30 1025.90 1025.48 1025.05 1024.59 1023.99 1023.28 1022.44 1021.58 1020.87 1020.30 1020.44 1020.25 1020.28 1019.58 1019.42 1020.07 1021.91 1025.73 1027.01 1027.31 1027.52 1027.56 1028.00 1028.44 1028.99 1029.37 1029.52 1029.62 1030.29 1030.68 1030.61 1031.00 1030.96 1031.20 1030.77 1029.57 1029.04 1028.59 1028.59 1028.70 1028.77 1028.57 1028.63 1029.12 1029.06
1026.54 1026.35 1026.03 1025.63 1025.23 1024.58 1024.03 1023.33 1022.38 1021.58 1020.71 1020.26 1020.78 1020.92 1020.35 1019.84 1019.81 1021.83 1025.39 1027.22 1027.86 1028.16 1028.15 1028.49 1028.97 1029.52 1030.19 1030.52 1030.54 1030.64 1030.96 1031.06 1030.84 1030.76 1031.01 1031.36 1031.43 1030.69 1030.03 1030.15 1030.06 1029.81 1029.81 1029.76 1029.91 1030.09 1030.60
1026.49 1026.33 1026.09 1025.71 1025.21 1024.66 1023.98 1023.39 1022.61 1021.58 1020.77 1020.41 1021.39 1021.81 1020.78 1020.12 1022.38 1025.47 1027.46 1027.81 1028.30 1028.72 1028.59 1028.96 1029.42 1030.05 1030.66 1031.00 1031.21 1031.16 1031.36 1030.98 1030.77 1030.77 1031.05 1031.24 1031.65 1031.72 1031.26 1030.77 1030.76 1031.07 1031.26 1030.95 1030.72 1031.04 1031.37
1026.55 1026.39 1026.24 1025.84 1025.33 1024.83 1024.25 1023.35 1022.69 1021.84 1021.50 1021.70 1022.78 1022.96 1021.70 1021.19 1024.82 1027.41 1028.40 1028.89 1028.98 1029.27 1029.61 1029.58 1030.07 1030.43 1030.78 1031.11 1031.59 1031.70 1031.56 1031.25 1031.07 1030.92 1030.89 1031.14 1031.79 1032.37 1031.72 1031.75 1031.50 1031.92 1032.13 1031.77 1031.42 1031.52 1032.55
1026.45 1026.32 1026.24 1025.90 1025.41 1025.02 1024.44 1023.67 1022.87 1021.96 1021.44 1022.01 1023.83 1024.51 1024.90 1025.39 1027.07 1027.51 1028.27 1029.34 1029.56 1029.61 1029.99 1030.17 1030.74 1030.95 1031.16 1031.39 1031.52 1031.97 1031.78 1031.44 1031.24 1031.13 1030.79 1031.10 1032.04 1032.76 1032.97 1032.50 1032.61 1032.90 1033.09 1033.01 1032.84 1033.41 1033.70
1026.53 1026.41 1026.21 1025.94 1025.54 1024.98 1024.68 1023.95 1023.18 1022.26 1021.77 1022.42 1025.00 1026.82 1027.19 1028.24 1028.63 1028.63 1028.91 1029.66 1030.24 1030.51 1030.55 1030.78 1031.39 1031.81 1032.01 1031.97 1032.01 1032.36 1032.44 1032.08 1031.72 1031.43 1031.56 1032.07 1032.49 1032.52 1032.45 1032.59 1032.86 1033.40 1033.62 1033.83 1033.89 1034.15 1034.42
1026.50 1026.39 1026.29 1026.04 1025.74 1025.14 1024.76 1024.08 1023.37 1022.52 1022.16 1023.94 1026.12 1026.82 1027.97 1028.79 1029.15 1029.25 1029.66 1030.29 1030.60 1030.99 1031.18 1031.59 1031.95 1032.13 1032.21 1032.18 1032.53 1032.85 1033.03 1032.94 1032.64 1032.28 1032.47 1032.60 1032.88 1032.90 1032.99 1033.08 1033.39 1033.83 1034.05 1034.22 1034.41 1034.56 1034.61
1026.49 1026.35 1026.36 1026.14 1025.97 1025.59 1025.02 1024.36 1023.65 1022.95 1022.52 1025.11 1026.67 1027.27 1027.69 1029.76 1029.84 1030.56 1031.01 1030.89 1031.04 1031.12 1031.73 1031.65 1031.98 1032.14 1032.41 1032.44 1032.24 1032.32 1032.53 1032.77 1033.03 1033.40 1033.28 1033.34 1033.53 1033.76 1033.65 1033.51 1033.79 1034.36 1034.64 1034.58 1034.64 1034.95 1035.32
1026.41 1026.41 1026.24 1026.19 1025.99 1025.86 1025.44 1024.81 1024.36 1023.90 1023.59 1025.23 1027.06 1027.53 1028.60 1030.64 1030.41 1030.70 1031.07 1031.35 1031.59 1031.66 1031.82 1032.15 1032.07 1032.06 1031.79 1031.96 1031.87 1032.01 1032.50 1032.61 1033.10 1033.22 1033.33 1033.65 1033.95 1034.32 1034.54 1034.41 1034.80 1034.82 1034.93 1034.83 1034.87 1035.18 1035.81
1026.03 1026.32 1026.25 1026.29 1026.27 1026.08 1025.78 1025.38 1025.14 1024.76 1024.69 1025.59 1026.96 1027.62 1029.10 1030.66 1031.16 1031.39 1031.56 1032.09 1032.46 1032.54 1032.68 1032.68 1032.21 1032.10 1031.96 1031.92 1032.26 1032.43 1032.77 1032.96 1033.38 1033.54 1033.77 1033.88 1034.55 1035.29 1035.74 1035.71 1035.36 1035.40 1035.73 1035.65 1035.24 1035.55 1036.16
1025.79 1026.20 1026.33 1026.34 1026.33 1026.30 1026.09 1025.79 1025.67 1025.41 1025.48 1026.18 1027.49 1027.70 1028.53 1030.45 1032.08 1032.02 1032.15 1032.44 1033.23 1033.41 1033.44 1033.17 1032.60 1032.36 1032.30 1032.62 1033.04 1033.49 1033.83 1033.78 1034.20 1034.31 1034.35 1034.55 1035.34 1036.32 1036.73 1036.92 1036.55 1036.61 1036.20 1035.38 1035.38 1035.77 1036.02
1025.81 1026.17 1026.31 1026.54 1026.58 1026.56 1026.49 1026.35 1026.06 1025.90 1025.84 1026.41 1027.85 1027.87 1028.54 1031.03 1032.28 1032.00 1032.44 1033.02 1033.39 1033.74 1034.12 1034.06 1033.88 1033.41 1033.32 1033.88 1034.46 1035.30 1035.34 1035.08 1035.57 1035.84 1036.01 1036.33 1036.97 1037.58 1037.68 1037.75 1037.30 1037.27 1036.34 1035.40 1036.13 1037.14 1036.18
1025.53 1026.26 1026.44 1026.54 1026.83 1026.82 1026.76 1026.67 1026.52 1026.41 1026.16 1026.66 1028.25 1028.16 1028.46 1031.46 1032.79 1032.46 1032.60 1033.00 1033.43 1033.66 1034.27 1034.48 1034.92 1034.58 1035.00 1035.75 1036.34 1037.08 1036.97 1037.07 1037.18 1037.31 1037.61 1038.44 1038.86 1038.95 1038.79 1038.52 1037.96 1037.40 1036.76 1037.31 1037.90 1037.12 1036.74
1025.11 1026.01 1026.48 1026.71 1026.85 1027.02 1027.17 1027.21 1027.06 1026.77 1026.70 1026.65 1028.48 1028.53 1028.94 1030.81 1033.29 1033.24 1033.28 1033.26 1033.20 1033.45 1034.12 1034.57 1035.14 1035.61 1035.95 1036.79 1037.49 1037.97 1038.13 1038.00 1038.52 1038.81 1038.69 1039.70 1039.98 1040.04 1039.92 1038.76 1038.18 1037.85 1037.91 1038.11 1037.87 1037.22 1036.66
Wind_Speed
13 14 14 15 15 16 16 17 18 18 19 19 20 20 21 20 20 19 18 17 16 11 10 9 6 4 1 6 3 5 7 8 6 5 4 3 2 1 3 3 6 6 5 6 7 11 7
13 13 14 14 15 16 17 17 18 18 19 20 20 21 21 20 19 18 18 17 15 9 8 9 6 4 2 7 5 7 7 6 3 4 5 5 3 3 4 3 2 4 7 8 8 15 7
13 13 15 15 16 17 17 18 18 18 19 19 20 21 20 20 19 19 17 15 11 6 6 6 5 3 12 3 3 7 6 4 3 1 2 1 1 2 3 6 3 6 7 7 12 9 7
13 14 15 15 16 16 17 18 18 19 20 20 21 21 21 20 20 19 16 14 9 5 5 5 5 1 6 2 2 7 8 4 6 4 2 3 2 0 3 4 6 5 2 2 5 6 5
13 13 14 15 16 17 18 19 19 20 21 21 22 22 22 21 21 20 17 13 5 4 5 6 2 3 2 2 6 5 7 6 6 2 4 2 3 1 5 4 5 3 6 6 7 18 15
13 14 14 15 16 17 18 19 20 20 21 22 22 22 20 19 20 20 17 2 2 1 0 2 2 5 5 6 2 7 9 4 3 4 6 4 5 3 6 7 5 11 10 8 7 14 17
12 13 15 16 16 17 18 20 20 21 21 22 23 22 20 18 18 18 6 3 7 7 10 5 3 4 3 3 8 11 8 7 7 8 5 5 9 7 9 9 6 7 7 8 10 12 16
12 13 14 16 17 18 19 19 20 21 22 22 22 21 20 17 15 13 5 6 3 2 5 5 5 4 3 2 7 18 11 8 6 5 8 8 6 8 10 14 11 8 8 9 10 18 14
11 12 13 15 16 18 19 20 21 22 22 23 23 22 20 19 5 7 7 4 5 2 4 3 3 5 5 12 10 14 13 6 6 6 6 1 7 12 13 18 17 6 10 17 18 16 8
10 12 14 15 17 18 19 20 21 21 22 22 22 21 20 18 7 0 4 6 4 1 6 7 7 7 8 2 8 15 12 5 10 6 6 7 5 8 13 18 12 9 13 15 17 13 9
10 12 13 15 16 18 20 21 22 22 21 20 21 19 17 12 1 5 5 6 3 3 5 5 5 4 8 10 5 15 15 8 7 8 7 6 8 11 14 14 10 7 18 16 18 16 5
10 11 13 15 16 18 20 21 22 22 21 20 19 16 15 5 3 3 3 2 3 6 3 4 5 5 6 10 6 5 15 7 4 4 8 3 4 5 2 10 7 14 13 10 6 3 1
9 11 13 15 18 19 20 21 22 22 21 19 18 12 5 1 3 2 1 3 6 6 5 6 4 5 4 7 10 10 11 20 10 6 7 8 6 9 3 15 13 13 12 5 6 6 3
8 11 13 15 17 19 20 21 22 23 22 20 18 7 2 1 3 1 2 5 6 3 3 3 5 3 5 9 4 10 6 6 7 3 1 5 7 7 7 9 9 9 3 0 5 3 8
8 10 12 15 17 19 21 22 23 22 20 20 10 3 3 4 2 2 6 8 2 1 4 7 6 5 4 5 3 5 5 5 6 6 3 5 5 7 13 7 6 7 5 5 5 5 2
7 9 12 14 17 19 21 22 24 23 20 14 2 2 3 9 2 5 9 5 2 4 4 3 4 6 6 6 6 6 4 4 3 5 2 3 4 5 10 7 7 4 5 5 2 3 6
5 8 11 14 16 18 20 21 23 23 20 2 4 4 5 9 5 9 7 3 4 4 4 4 2 4 2 4 3 3 6 2 3 5 4 1 1 7 5 5 5 6 5 4 3 4 4
4 7 10 12 15 17 18 20 22 21 20 8 3 3 5 4 8 4 3 3 4 4 5 5 4 4 2 4 4 2 2 1 4 1 4 2 1 4 6 5 3 6 4 3 2 3 3
3 6 10 12 15 17 19 20 22 21 11 2 3 1 6 5 5 3 3 4 4 3 4 3 3 5 2 1 1 3 4 2 5 5 3 2 2 3 7 3 5 5 9 10 3 1 2
2 5 8 12 14 18 20 22 23 21 9 5 4 4 6 7 2 7 6 3 3 3 3 3 3 4 4 2 4 2 4 2 5 4 10 4 1 4 4 8 1 2 10 9 4 3 4
3 5 7 11 14 18 20 22 23 22 9 5 5 1 2 3 5 5 4 3 2 2 2 6 3 3 1 2 3 2 3 5 4 6 6 3 2 3 7 4 4 4 5 10 5 4 3
5 5 7 10 13 16 19 21 24 23 6 7 3 4 4 2 2 5 5 2 3 1 2 2 2 4 2 3 2 2 3 2 4 6 5 4 3 4 3 6 6 4 7 4 9 5 4
6 6 6 9 11 14 17 20 23 24 8 4 1 3 6 4 3 4 1 3 1 4 4 4 2 2 2 4 5 8 7 6 5 1 4 3 2 3 4 4 7 3 5 6 11 1 4
8 6 7 7 9 12 15 19 19 21 10 5 2 3 5 2 3 3 3 2 3 2 4 1 2 1 4 4 5 3 4 6 4 2 2 2 3 2 4 4 2 5 9 8 12 6 7
12 8 8 7 8 10 13 16 17 16 17 6 2 4 4 4 3 4 5 3 3 4 1 0 2 1 5 2 3 2 3 2 3 3 4 2 3 2 1 2 1 1 7 11 9 8 8
14 9 7 7 7 9 11 14 14 14 9 5 3 1 5 7 2 1 4 3 2 1 4 2 3 4 6 1 1 1 2 0 1 6 3 5 5 4 3 1 4 2 10 12 6 5 11
17 12 10 8 7 8 9 11 12 11 13 6 3 3 5 6 2 2 3 3 3 2 2 3 6 7 4 3 2 1 0 0 1 3 5 4 4 2 4 3 3 7 13 11 4 6 18
18 14 12 10 8 8 9 9 8 9 11 5 1 4 6 4 3 4 4 3 2 2 4 3 4 4 4 4 3 2 2 2 4 1 0 3 1 2 3 3 4 11 4 4 5 9 13
20 16 14 11 9 8 9 9 9 8 8 6 4 3 4 7 3 2 4 3 3 1 4 2 5 1 3 4 1 2 2 2 3 1 3 2 5 4 6 3 2 8 4 4 8 10 10
Wind_Direction
36 32 29 25 19 16 13 8 3 359 356 354 352 349 347 344 342 340 339 336 340 346 355 360 7 2 245 56 65 300 345 339 342 349 13 11 357 264 258 287 325 257 267 283 305 290 274
33 28 25 22 17 12 9 6 2 358 356 353 351 348 345 342 340 338 336 334 341 349 356 12 14 344 4 71 288 321 335 335 14 29 359 27 324 250 249 266 227 298 299 294 290 291 278
30 25 21 18 14 10 6 3 359 356 355 352 349 346 343 339 338 337 333 329 336 335 339 349 1 358 63 91 346 322 340 299 326 49 8 12 326 18 9 306 276 261 284 291 269 264 251
28 23 19 14 10 6 3 0 357 354 352 350 348 346 343 339 337 334 329 322 318 304 317 321 344 17 94 307 307 12 340 359 349 293 205 276 320 272 193 284 326 293 10 2 305 351 300
24 20 17 11 7 4 1 358 356 353 350 348 347 346 344 340 337 329 327 318 290 269 289 307 22 87 57 3 21 339 10 313 311 305 301 287 59 323 350 343 329 323 272 290 318 22 3
20 18 14 8 5 3 360 357 354 351 349 347 346 344 343 340 336 327 337 52 49 352 186 270 299 52 14 327 356 334 329 309 271 331 7 26 42 21 8 14 310 324 313 326 332 352 354
18 15 10 6 3 1 358 354 352 350 348 347 345 342 342 339 339 331 11 24 20 355 34 73 322 88 22 37 65 360 338 341 1 46 9 335 58 17 26 13 345 348 343 343 359 3 341
14 12 10 5 1 358 355 353 351 348 347 345 344 341 339 340 342 353 43 60 52 328 67 4 70 60 2 53 38 5 353 43 30 44 6 17 75 351 65 31 20 34 8 346 310 353 331
11 9 6 4 360 356 352 351 349 347 347 345 345 341 339 336 343 44 69 43 332 347 89 23 57 36 6 60 31 357 9 1 29 32 2 85 10 56 43 28 5 12 11 337 311 323 260
11 5 3 0 358 353 350 349 347 346 346 345 345 342 343 334 58 303 63 322 347 123 87 342 353 2 357 124 72 34 0 10 16 5 348 87 33 45 36 20 0 329 353 319 308 320 309
8 6 2 358 356 352 349 347 346 346 345 345 344 343 348 26 165 51 305 323 318 62 34 333 26 14 14 73 327 19 352 31 37 55 36 325 37 27 35 356 351 299 315 297 283 275 283
5 4 360 357 354 352 348 346 346 345 343 343 345 344 346 15 38 145 304 311 60 51 253 344 37 32 26 37 16 108 35 34 55 56 18 47 12 46 49 327 321 311 325 302 283 246 19
360 359 360 357 353 352 348 346 344 343 342 340 339 336 350 40 293 329 6 79 33 97 345 351 332 8 79 10 17 17 38 43 51 9 26 331 21 353 357 352 334 352 344 329 357 8 309
358 359 358 358 354 352 348 344 343 342 341 338 330 325 330 155 310 98 75 49 72 34 345 2 348 19 74 10 46 29 51 43 27 51 350 18 342 2 324 337 341 332 329 319 298 305 280
355 1 359 357 353 352 348 345 343 342 340 337 338 352 15 322 326 82 71 50 137 326 290 334 334 52 50 357 32 57 68 23 25 12 38 14 287 322 344 330 346 324 345 298 260 237 240
357 358 360 358 357 353 349 347 344 341 339 341 56 55 341 330 71 59 68 110 99 24 339 8 26 34 23 0 28 30 39 327 20 38 15 355 292 307 337 354 8 1 331 351 346 334 313
1 360 1 0 357 355 350 347 345 341 341 19 51 44 276 344 51 50 84 76 104 32 22 34 49 36 76 7 0 38 358 89 7 347 34 6 132 295 354 15 17 357 352 316 257 339 331
17 6 4 2 358 354 352 348 347 346 345 44 79 45 307 16 54 49 66 96 63 1 12 47 90 69 62 8 0 67 91 19 315 250 346 257 181 288 281 200 120 78 324 315 352 348 339
32 15 5 5 2 357 353 355 351 350 5 73 75 309 329 56 89 71 64 63 78 45 22 38 47 76 15 4 24 47 23 302 336 360 292 307 2 335 335 275 354 59 4 334 293 205 1
96 34 13 11 9 3 360 359 356 353 356 81 67 27 353 35 25 114 124 109 119 46 60 64 79 64 18 22 28 135 340 20 349 337 14 25 212 168 232 269 238 51 22 358 10 44 277
113 53 28 19 15 14 6 4 1 359 7 86 31 67 187 11 17 78 86 91 99 12 57 40 85 58 356 285 355 28 3 334 329 334 350 68 254 290 299 145 97 89 44 25 12 300 168
132 80 46 33 22 22 14 11 7 5 27 77 104 121 21 98 104 70 18 68 106 76 64 60 54 328 6 146 133 247 30 272 264 326 329 350 278 342 229 173 161 104 30 20 360 348 315
147 108 68 46 29 25 25 21 17 12 50 91 12 28 98 341 56 68 321 143 135 138 47 83 141 19 316 216 212 227 208 236 241 344 290 339 321 4 286 268 133 226 360 346 340 81 311
156 132 97 65 44 35 33 32 29 30 58 112 123 101 86 37 72 109 121 100 136 120 135 173 116 67 246 311 277 153 178 237 237 213 247 290 341 144 265 357 310 161 42 325 331 84 28
160 145 113 83 59 49 43 41 37 48 48 85 89 98 104 100 99 76 83 65 72 22 76 119 356 266 298 339 5 33 8 76 46 91 29 32 96 326 326 234 177 124 2 328 330 312 33
162 149 140 110 83 63 55 49 45 46 74 85 64 94 98 118 1 359 90 65 132 28 357 355 325 328 28 52 314 116 166 178 257 327 25 47 66 110 341 294 268 66 313 299 295 255 2
161 162 158 130 104 77 63 53 52 61 71 93 62 31 86 102 4 74 112 152 127 103 140 319 331 353 15 22 59 49 343 318 271 345 337 348 351 10 329 273 291 345 314 311 24 306 330
163 170 158 136 118 87 71 51 55 61 77 87 103 2 112 98 13 36 55 93 69 69 119 278 27 357 21 52 79 276 97 258 72 297 202 170 98 308 323 304 295 1 348 71 274 302 302
162 169 154 142 124 97 79 58 59 79 90 93 74 11 49 83 118 55 80 36 74 139 137 25 175 175 200 79 16 98 343 37 160 261 27 346 172 203 164 255 47 18 92 346 318 297 324